DELTA 1 DEB

Satellite information

Favourite Embed

Satellite Type and Status

DEBRISIN ORBIT

Key statistics

Satellite DELTA 1 DEB at a glance.

Uptime

18539

Days in orbit

Revolutions

≈ 14.4

Per day

Orbit

SSO

Sun Synchronous Orbit

Inclination

97.6

Latest

Satellite identification and parameters

Extended collection of information and parameters for DELTA 1 DEB.

Object identification

Identified? True

Debris? True

Object name: DELTA 1 DEB

International designator: 1975-004EQ

Object number (NORAD): 9313

Object ID (CCSDS): 9313

Country: UNITED STATES OF AMERICA (US)

Current information (Y/N): Y

RCS size: SMALL

Orbital parameters

Period: 100.046 minutes

Inclination: 97.558 deg

SMA: 7138.819 km

Apoapsis: 822.128 km

Periapsis: 699.239 km

RAAN: 154.6074 deg

Eccentricy: 0.00860712

Argument of periapsis: 174.2983 deg

Mean anomaly: 185.9209 deg

Mean motion: 14.39339505 rev/day

Mean motion (dot): 0.00000396 rev/day2

B* drag term: 0.00013337913 1/REarth

Two-line elements (TLE)

Creation date: Oct. 24, 2025, 6:33 p.m.

Reference frame: TEME

Reference center: EARTH

Epoch: Oct. 24, 2025, 1:02 a.m. UTC

TLE line 0: 0 DELTA 1 DEB

TLE line 1: 1 09313U 75004EQ 25297.04345555 .00000396 00000-0 13338-3 0 9997

TLE line 2: 2 09313 97.5580 154.6074 0086071 174.2983 185.9209 14.39339505601738

Live tracking on map

Real-time ground track for satellite DELTA 1 DEB.

In-orbit conjunctions

A list of the most updated potential collisions computed for object DELTA 1 DEB.

Target Orbit TCA Probability of collision Miss distance Type
CZ-6A DEB LEO 2025-01-12 20:27:11 0.0009310373 467.0 (m) DEBRIS
COSMOS 2251 DEB LEO 2024-05-28 18:00:33 0.0003838666 69.0 (m) DEBRIS

Associated space launch

Earth observation satellite

DELTA 1 DEB was lifted into orbit during the mission ‘Delta 2910 | Landsat 2’, on board a Delta 2910 space rocket.

The launch took place on Jan. 22, 1975, 5:55 p.m. from Space Launch Complex 2W.

For more information about the launch, click the button.

Launch to space Delta 2910 | Landsat 2
Delta 2910 | Landsat 2

Agency: N/A

Status: Launch Successful

Launch date: Jan. 22, 1975, 5:55 p.m. UTC

Rocket: Delta 2910

Launch pad: Space Launch Complex 2W

Location: Vandenberg SFB, CA, USA

...

Latest news about this satellite

There are no fresh news available about this satellite. Check back as we update our databases every day.


Newsletter sign-up

Weekly statistics, charts and insights to help you stay on top of the space industry.